Location: Kershaw
(34.5481°N, 80.5823°W)
Time: 12:40:45
(UTC+00:00)

Explorer 7 - Pass Details

Date: 12 October 2022
Orbit: 481 x 665 km, 50.3° (Epoch: 26 November)

Event Time Altitude Azimuth Distance (km) Brightness Sun altitude
Rises 13:14:13 0° 266° (W) 2,943 10.0 20.5°
Reaches altitude 10° 13:16:54 10° 280° (W) 2,056 9.2 21.0°
Maximum altitude 13:20:46 24° 334° (NNW) 1,363 8.5 21.7°
Drops below altitude 10° 13:24:42 10° 29° (NNE) 2,090 9.9 22.5°
Sets 13:27:28 0° 43° (NE) 3,002 10.8 23.0°
